Weather History for Clinton, MO

Change the Weather History Date:

Thursday, March 20, 2014

  Actual Average (KSZL) Record (KSZL)
Temperature  
Mean Temperature 50 °F -  
Max Temperature 68 °F 54 °F 76 °F (2011)
Min Temperature 32 °F 34 °F 24 °F (2013)
Degree Days  
Heating Degree Days 15    
Moisture  
Dew Point 29 °F    
Average Humidity 49    
Maximum Humidity 87    
Minimum Humidity 18    
Precipitation  
Precipitation 0.00 in - - ()
Sea Level Pressure  
Sea Level Pressure 30.03 in    
Wind  
Wind Speed 8 mph (SSW)    
Max Wind Speed 21 mph    
Max Gust Speed 28 mph    
Visibility 10 miles    
Events      
Averages and records for this station are not official NWS values.
T = Trace of Precipitation, MM = Missing Value Source: NWS Daily Summary

Daily Weather History Graph

Daily Weather History Graph

Search for Another Location

Airport:

Trip Planner

Search our weather history database for the weather conditions in past years. The results will help you decide how hot, cold, wet, or windy it might be!

Date:

Astronomy

Mar. 20, 2014 Rise Set
Actual Time 7:18 AM CDT 7:26 PM CDT
Civil Twilight 6:51 AM CDT 7:53 PM CDT
Nautical Twilight 6:21 AM CDT 8:24 PM CDT
Astronomical Twilight 5:49 AM CDT 8:55 PM CDT
Moon 11:43 PM CDT (3/20) 9:28 AM CDT (3/20)
Length of Visible Light 13h 01m
Length of Day
12h 08m
Waning Gibbous, 84% of the Moon is Illuminated
Mar 20
Waning Gibbous
Mar 23
Last Quarter
Mar 30
New
Apr 7
First Quarter
Apr 15
Full

Hourly Weather History & Observations

Time (CDT) Temp. Windchill Dew Point Humidity Pressure Visibility Wind Dir Wind Speed Gust Speed Precip Events Conditions
12:15 AM 33.8 °F - 28.4 °F 81% 30.15 in 10.0 mi Calm Calm - N/A   Clear
12:35 AM 32.0 °F 27.5 °F 28.4 °F 87% 30.14 in 10.0 mi South 4.6 mph - N/A   Clear
12:55 AM 32.0 °F 27.5 °F 28.4 °F 87% 30.14 in 10.0 mi South 4.6 mph - N/A   Clear
1:15 AM 32.0 °F 27.5 °F 28.4 °F 87% 30.13 in 10.0 mi South 4.6 mph - N/A   Clear
1:35 AM 32.0 °F 26.4 °F 28.4 °F 87% 30.13 in 10.0 mi South 5.8 mph - N/A   Clear
1:55 AM 39.2 °F 35.0 °F 26.6 °F 61% 30.13 in 10.0 mi South 5.8 mph - N/A   Clear
2:15 AM 37.4 °F 33.8 °F 28.4 °F 70% 30.13 in 10.0 mi SSW 4.6 mph - N/A   Clear
2:35 AM 35.6 °F 30.7 °F 28.4 °F 75% 30.13 in 10.0 mi SSW 5.8 mph - N/A   Clear
2:55 AM 35.6 °F 31.7 °F 28.4 °F 75% 30.13 in 10.0 mi SSW 4.6 mph - N/A   Clear
3:15 AM 35.6 °F 30.7 °F 28.4 °F 75% 30.12 in 10.0 mi SSW 5.8 mph - N/A   Clear
3:35 AM 35.6 °F 31.7 °F 28.4 °F 75% 30.12 in 10.0 mi SSW 4.6 mph - N/A   Clear
3:55 AM 33.8 °F 28.6 °F 28.4 °F 81% 30.12 in 10.0 mi SSW 5.8 mph - N/A   Clear
4:15 AM 35.6 °F 30.7 °F 28.4 °F 75% 30.12 in 10.0 mi SSW 5.8 mph - N/A   Clear
4:35 AM 35.6 °F 30.7 °F 28.4 °F 75% 30.11 in 10.0 mi SSW 5.8 mph - N/A   Drizzle
4:55 AM 35.6 °F 32.8 °F 28.4 °F 75% 30.11 in 10.0 mi SSW 3.5 mph - N/A   Clear
5:15 AM 35.6 °F 30.7 °F 26.6 °F 70% 30.12 in 10.0 mi SSW 5.8 mph - N/A   Clear
5:35 AM 35.6 °F 31.7 °F 28.4 °F 75% 30.12 in 10.0 mi SSW 4.6 mph - N/A   Clear
5:55 AM 35.6 °F 30.7 °F 28.4 °F 75% 30.12 in 10.0 mi SSW 5.8 mph - N/A   Clear
6:15 AM 35.6 °F 31.7 °F 28.4 °F 75% 30.12 in 10.0 mi SSW 4.6 mph - N/A   Clear
6:35 AM 35.6 °F 30.7 °F 28.4 °F 75% 30.13 in 10.0 mi SW 5.8 mph - N/A   Clear
6:55 AM 35.6 °F 31.7 °F 28.4 °F 75% 30.13 in 10.0 mi SSW 4.6 mph - N/A   Clear
7:15 AM 35.6 °F - 28.4 °F 75% 30.13 in 10.0 mi Calm Calm - N/A   Clear
7:35 AM 33.8 °F 28.6 °F 28.4 °F 81% 30.12 in 10.0 mi South 5.8 mph - N/A   Clear
7:55 AM 35.6 °F 30.7 °F 28.4 °F 75% 30.12 in 10.0 mi South 5.8 mph - N/A   Clear
8:15 AM 37.4 °F 32.8 °F 30.2 °F 75% 30.12 in 10.0 mi SSW 5.8 mph - N/A   Clear
8:35 AM 39.2 °F 35.0 °F 32.0 °F 75% 30.12 in 10.0 mi SSW 5.8 mph - N/A   Clear
8:55 AM 42.8 °F 37.0 °F 32.0 °F 66% 30.12 in 9.0 mi SSW 10.4 mph - N/A   Clear
9:15 AM 44.6 °F 40.2 °F 32.0 °F 61% 30.12 in 10.0 mi SSW 8.1 mph - N/A   Clear
9:35 AM 46.4 °F 41.5 °F 32.0 °F 57% 30.12 in 10.0 mi SW 10.4 mph 18.4 mph N/A   Clear
9:55 AM 48.2 °F - 32.0 °F 54% 30.12 in 10.0 mi SW 10.4 mph - N/A   Clear
10:15 AM 51.8 °F - 32.0 °F 47% 30.12 in 10.0 mi SW 13.8 mph - N/A   Clear
10:35 AM 53.6 °F - 32.0 °F 44% 30.12 in 10.0 mi WSW 15.0 mph 18.4 mph N/A   Clear
10:55 AM 55.4 °F - 32.0 °F 41% 30.12 in 10.0 mi SW 13.8 mph - N/A   Clear
11:15 AM 57.2 °F - 32.0 °F 38% 30.11 in 10.0 mi SW 16.1 mph 21.9 mph N/A   Clear
11:35 AM 57.2 °F - 32.0 °F 38% 30.09 in 10.0 mi SW 12.7 mph - N/A   Clear
11:55 AM 59.0 °F - 32.0 °F 36% 30.09 in 10.0 mi SW 15.0 mph 21.9 mph N/A   Clear
12:15 PM 60.8 °F - 32.0 °F 34% 30.08 in 10.0 mi WSW 18.4 mph 23.0 mph N/A   Clear
12:35 PM 62.6 °F - 32.0 °F 32% 30.07 in 10.0 mi SW 15.0 mph 23.0 mph N/A   Clear
12:55 PM 62.6 °F - 32.0 °F 32% 30.05 in 10.0 mi SW 19.6 mph 24.2 mph N/A   Clear
1:15 PM 64.4 °F - 32.0 °F 30% 30.04 in 10.0 mi SSW 17.3 mph 26.5 mph N/A   Clear
1:35 PM 64.4 °F - 32.0 °F 30% 30.03 in 10.0 mi SSW 20.7 mph 25.3 mph N/A   Clear
1:55 PM 64.4 °F - 32.0 °F 30% 30.01 in 10.0 mi SSW 12.7 mph 19.6 mph N/A   Clear
2:15 PM 66.2 °F - 30.2 °F 26% 29.99 in 10.0 mi SSW 18.4 mph 24.2 mph N/A   Clear
2:35 PM 66.2 °F - 30.2 °F 26% 29.98 in 10.0 mi SSW 16.1 mph 24.2 mph N/A   Clear
2:55 PM 68.0 °F - 30.2 °F 24% 29.97 in 10.0 mi SW 18.4 mph 27.6 mph N/A   Clear
3:15 PM 68.0 °F - 30.2 °F 24% 29.96 in 10.0 mi SSW 16.1 mph 26.5 mph N/A   Clear
3:35 PM 68.0 °F - 30.2 °F 24% 29.95 in 10.0 mi SW 20.7 mph - N/A   Clear
3:55 PM 68.0 °F - 28.4 °F 23% 29.94 in 10.0 mi SSW 16.1 mph 24.2 mph N/A   Clear
4:15 PM 68.0 °F - 28.4 °F 23% 29.92 in 10.0 mi South 19.6 mph 27.6 mph N/A   Clear
4:35 PM 68.0 °F - 26.6 °F 21% 29.92 in 10.0 mi SW 17.3 mph 25.3 mph N/A   Clear
4:55 PM 68.0 °F - 26.6 °F 21% 29.91 in 10.0 mi SSW 15.0 mph 23.0 mph N/A   Clear
5:15 PM 68.0 °F - 23.0 °F 18% 29.91 in 10.0 mi SSW 18.4 mph 24.2 mph N/A   Clear
5:35 PM 68.0 °F - 24.8 °F 20% 29.91 in 10.0 mi SSW 12.7 mph 26.5 mph N/A   Clear
5:55 PM 66.2 °F - 24.8 °F 21% 29.91 in 10.0 mi SW 17.3 mph 23.0 mph N/A   Clear
6:15 PM 66.2 °F - 26.6 °F 23% 29.91 in 10.0 mi SW 15.0 mph - N/A   Clear
6:35 PM 64.4 °F - 26.6 °F 24% 29.91 in 10.0 mi SW 11.5 mph 21.9 mph N/A   Clear
6:55 PM 64.4 °F - 28.4 °F 26% 29.91 in 10.0 mi SSW 10.4 mph - N/A   Clear
7:15 PM 62.6 °F - 28.4 °F 27% 29.90 in 10.0 mi SSW 9.2 mph - N/A   Clear
7:35 PM 60.8 °F - 28.4 °F 29% 29.90 in 10.0 mi SSW 8.1 mph - N/A   Clear
7:55 PM 60.8 °F - 28.4 °F 29% 29.90 in 10.0 mi SSW 8.1 mph - N/A   Clear
8:15 PM 60.8 °F - 28.4 °F 29% 29.90 in 10.0 mi SSW 8.1 mph - N/A   Clear
8:35 PM 57.2 °F - 28.4 °F 33% 29.90 in 10.0 mi South 6.9 mph - N/A   Clear
8:55 PM 57.2 °F - 28.4 °F 33% 29.91 in 10.0 mi South 8.1 mph - N/A   Clear
9:15 PM 55.4 °F - 28.4 °F 36% 29.91 in 10.0 mi South 5.8 mph - N/A   Clear
9:35 PM 55.4 °F - 28.4 °F 36% 29.91 in 10.0 mi South 6.9 mph - N/A   Clear
9:55 PM 55.4 °F - 28.4 °F 36% 29.91 in 10.0 mi South 8.1 mph - N/A   Clear
10:15 PM 55.4 °F - 28.4 °F 36% 29.90 in 10.0 mi South 8.1 mph - N/A   Clear
10:35 PM 55.4 °F - 28.4 °F 36% 29.90 in 10.0 mi South 9.2 mph - N/A   Clear
10:55 PM 55.4 °F - 28.4 °F 36% 29.90 in 10.0 mi South 9.2 mph - N/A   Clear
11:15 PM 55.4 °F - 28.4 °F 36% 29.90 in 10.0 mi South 9.2 mph - N/A   Clear
11:35 PM 55.4 °F - 28.4 °F 36% 29.90 in 10.0 mi South 9.2 mph - N/A   Clear
11:55 PM 55.4 °F - 28.4 °F 36% 29.90 in 10.0 mi South 10.4 mph - N/A   Clear